Location: ??????????
(54.4061°N, 22.6114°E)
Time: 09:14:20
(UTC+00:00)

Cosmos 2123 Rocket - Pass Details

Date: 23 October 2019
Orbit: 960 x 993 km, 82.9° (Epoch: 11 November)

Event Time Altitude Azimuth Distance (km) Brightness Sun altitude
Rises 18:25:27 0° 195° (SSW) 3,686 7.0 -28.1°
Reaches altitude 10° 18:27:59 10° 197° (SSW) 2,738 6.3 -28.5°
Maximum altitude 18:34:15 74° 283° (WNW) 1,023 4.1 -29.3°
Drops below altitude 10° 18:40:32 10° 9° (N) 2,733 6.5 -30.2°
Sets 18:43:04 0° 11° (N) 3,680 7.2 -30.5°
